Weather History for KYIP - October, 2011

Change the Weather History Date:

Thursday, October 27, 2011

  Actual Average Record
Temperature  
Mean Temperature 44 °F -  
Max Temperature 51 °F 59 °F 80 °F (2014)
Min Temperature 36 °F 39 °F 21 °F (1976)
Degree Days  
Heating Degree Days 22    
Moisture  
Dew Point 36 °F    
Average Humidity 74    
Maximum Humidity 82    
Minimum Humidity 56    
Precipitation  
Precipitation 0.06 in - - ()
Sea Level Pressure  
Sea Level Pressure 29.96 in    
Wind  
Wind Speed 9 mph (NNW)    
Max Wind Speed 13 mph    
Max Gust Speed 24 mph    
Visibility 9 miles    
Events Rain    
Averages and records for this station are not official NWS values.
T = Trace of Precipitation, MM = Missing Value Source: NWS Daily Summary

Daily Weather History Graph

Daily Weather History Graph

Search for Another Location

Airport or City:

Trip Planner

Search our weather history database for the weather conditions in past years. The results will help you decide how hot, cold, wet, or windy it might be!

Date:

Astronomy

Oct. 27, 2011 Rise Set
Actual Time 8:00 AM EDT 6:34 PM EDT
Civil Twilight 7:31 AM EDT 7:03 PM EDT
Nautical Twilight 6:59 AM EDT 7:36 PM EDT
Astronomical Twilight 6:26 AM EDT 8:08 PM EDT
Moon 9:04 AM EDT (10/27) 7:00 PM EDT (10/27)
Length of Visible Light 11h 31m
Length of Day
10h 33m
New Moon, 1% of the Moon is Illuminated
Oct 27
New Moon
Nov 2
First Quarter
Nov 10
Full
Nov 18
Last Quarter
Nov 25
New

Hourly Weather History & Observations

Time (EDT) Temp. Windchill Dew Point Humidity Pressure Visibility Wind Dir Wind Speed Gust Speed Precip Events Conditions
12:53 AM 46.9 °F - 41.0 °F 80% 29.89 in 10.0 mi North 9.2 mph - 0.00 in   Overcast
1:53 AM 46.4 °F 41.1 °F 41.0 °F 81% 29.88 in 10.0 mi North 11.5 mph - N/A   Overcast
2:53 AM 46.0 °F 40.2 °F 39.9 °F 79% 29.89 in 10.0 mi North 12.7 mph - N/A   Overcast
3:53 AM 46.0 °F 41.0 °F 39.0 °F 76% 29.87 in 10.0 mi North 10.4 mph - N/A   Overcast
4:29 AM 44.6 °F 39.7 °F 39.2 °F 81% 29.86 in 10.0 mi North 9.2 mph - N/A   Overcast
4:53 AM 45.0 °F 40.1 °F 39.0 °F 80% 29.86 in 10.0 mi North 9.2 mph - N/A   Overcast
5:53 AM 45.0 °F 40.1 °F 37.9 °F 76% 29.89 in 10.0 mi North 9.2 mph - N/A   Overcast
6:53 AM 44.6 °F 40.7 °F 37.4 °F 76% 29.88 in 10.0 mi North 6.9 mph - N/A   Overcast
7:53 AM 44.1 °F 40.8 °F 37.0 °F 76% 29.89 in 10.0 mi NNW 5.8 mph - 0.00 in Rain Light Rain
8:53 AM 44.1 °F 40.1 °F 37.0 °F 76% 29.90 in 10.0 mi NNW 6.9 mph - 0.01 in Rain Light Rain
9:53 AM 44.1 °F 40.1 °F 37.0 °F 76% 29.92 in 10.0 mi NNW 6.9 mph - 0.00 in Rain Light Rain
10:53 AM 45.0 °F 40.1 °F 37.0 °F 74% 29.93 in 10.0 mi NNW 9.2 mph - 0.01 in Rain Light Rain
11:53 AM 46.0 °F 40.2 °F 36.0 °F 68% 29.94 in 10.0 mi NW 12.7 mph - 0.00 in Rain Light Rain
12:53 PM 46.9 °F - 35.1 °F 63% 29.95 in 10.0 mi NNW 12.7 mph - 0.00 in   Overcast
1:20 PM 42.8 °F 36.6 °F 35.6 °F 76% 29.96 in 2.5 mi North 11.5 mph 24.2 mph 0.02 in Rain Rain
1:28 PM 42.8 °F 39.3 °F 37.4 °F 81% 29.95 in 5.0 mi North 5.8 mph - 0.02 in Rain Light Rain
1:50 PM 44.6 °F 38.4 °F 39.2 °F 81% 29.95 in 10.0 mi North 12.7 mph - 0.02 in Rain Light Rain
1:53 PM 45.0 °F 39.3 °F 37.9 °F 76% 29.95 in 10.0 mi North 11.5 mph - 0.02 in Rain Light Rain
2:53 PM 44.1 °F 37.7 °F 36.0 °F 73% 29.95 in 5.0 mi NW 12.7 mph 24.2 mph 0.02 in Rain Light Rain
3:03 PM 44.6 °F 39.7 °F 35.6 °F 71% 29.95 in 10.0 mi NNW 9.2 mph - 0.00 in Rain Light Rain
3:53 PM 50.0 °F - 37.9 °F 63% 29.96 in 10.0 mi North 6.9 mph - 0.00 in   Partly Cloudy
4:53 PM 51.1 °F - 36.0 °F 56% 29.98 in 10.0 mi NW 8.1 mph - N/A   Overcast
5:53 PM 46.9 °F - 33.1 °F 59% 30.00 in 10.0 mi NNW 6.9 mph - N/A   Mostly Cloudy
6:53 PM 45.0 °F 43.5 °F 34.0 °F 65% 30.04 in 10.0 mi North 3.5 mph - N/A   Overcast
7:53 PM 43.0 °F - 33.1 °F 68% 30.09 in 10.0 mi Calm Calm - N/A   Scattered Clouds
8:53 PM 39.2 °F - 33.8 °F 81% 30.10 in 10.0 mi Calm Calm - N/A   Clear
9:53 PM 37.0 °F - 30.9 °F 79% 30.13 in 10.0 mi Calm Calm - N/A   Partly Cloudy
10:53 PM 36.0 °F - 30.9 °F 82% 30.14 in 10.0 mi Calm Calm - N/A   Clear
11:53 PM 36.0 °F - 30.9 °F 82% 30.14 in 10.0 mi Calm Calm - N/A   Clear